Regional Weather Roundup
Issued by NWS Upton, NY

Current Version | Previous Version | Text Only | Print | Product List | Glossary On
Versions: 1 2 3 4 5 6 7 8 9 10 11 12 13 14 15 16 17 18 19 20 21 22 23 24 25 26 27 28 29 30 31 32 33 34 35 36 37 38 39 40 41 42 43 44 45 46 47 48 49 50
000 ASUS41 KOKX 251505 RWROKX REGIONAL WEATHER ROUNDUP NATIONAL WEATHER SERVICE NEW YORK NY 1000 AM EST THU DEC 25 2014 NOTE: "FAIR" INDICATES FEW OR NO CLOUDS BELOW 12,000 FEET WITH NO SIGNIFICANT WEATHER AND/OR OBSTRUCTIONS TO VISIBILITY. NYZ071-072-176-178-NJZ106-104-251600- NEW YORK CITY METRO AREA CITY SKY/WX TMP DP RH WIND PRES REMARKS CENTRAL PARK CLOUDY 50 33 52 W12G29 29.75R LAGUARDIA APRT CLOUDY 50 34 54 W22G31 29.72R KENNEDY INTL CLOUDY 50 35 56 W21G33 29.74R NEWARK/LIBERTY CLOUDY 49 34 56 W22G35 29.74R BRNX BOT. GARD N/A 48 34 57 W20 29.73R TETERBORO CLOUDY 50 36 58 W14G24 29.72R $$ NYZ177-179-078>081-251600- LONG ISLAND NEW YORK CITY SKY/WX TMP DP RH WIND PRES REMARKS FARMINGDALE CLOUDY 50 37 61 W13G23 29.71R ISLIP CLOUDY 50 39 66 W10 29.68R SHIRLEY CLOUDY 50 41 71 W15G24 29.69R WESTHAMPTON CLOUDY 50 44 80 W15G21 29.70R MONTAUK POINT N/A 50 45 83 W9 29.66R $$ NYZ052-065-067-251600- HUDSON VALLEY CITY SKY/WX TMP DP RH WIND PRES REMARKS WHITE PLAINS CLOUDY 48 35 60 W17G29 29.69R NEWBURGH MOSUNNY 46 39 76 W18G25 29.70R MONTGOMERY PTSUNNY 49 35 58 W12G20 29.69R POUGHKEEPSIE CLOUDY 49 34 56 W12G21 29.69R ALBANY MOSUNNY 50 33 52 W20G32 29.61R $$ NJZ001-105-106-008-010-013-015-019>022-104-251600- NEW JERSEY CITY SKY/WX TMP DP RH WIND PRES REMARKS NEWARK/LIBERTY CLOUDY 49 34 56 W22G35 29.74R TETERBORO CLOUDY 50 36 58 W14G24 29.72R CALDWELL CLOUDY 48 30 49 W15G30 29.74R MORRISTOWN CLOUDY 52 36 54 NW12G25 29.75R SOMERVILLE CLOUDY 48 31 51 MISG 29.76R SUSSEX PTSUNNY 47 31 53 W10 29.74R ANDOVER NOT AVBL TRENTON CLOUDY 48 32 53 W10 29.78R MILLVILLE CLOUDY 49 39 68 W10 29.84R ATLANTIC CITY CLOUDY 49 44 83 W9 29.81R WRIGHTSTOWN CLOUDY 49 38 66 W15G23 29.79R TOMS RIVER CLOUDY 48 41 76 W16G22 29.80R BELMAR CLOUDY 48 34 57 W20G28 29.77R $$ PAZ047>061-062-071-251600- EASTERN PENNSYLVANIA CITY SKY/WX TMP DP RH WIND PRES REMARKS PHILADELPHIA CLOUDY 50 34 54 W16G25 29.84R ALLENTOWN SUNNY 48 31 51 W16G32 29.78R SCRANTON PTSUNNY 44 32 62 SW10 29.75R $$ CTZ002-004>006-009-010-012-RIZ004-006-007-MAZ004-011-015-251600- SOUTHERN NEW ENGLAND IN CT CITY SKY/WX TMP DP RH WIND PRES REMARKS BRADLEY INTL CLOUDY 51 41 68 W8 29.62R HARTFORD CLOUDY 50 40 68 SW12G22 29.64R DANBURY CLOUDY 48 33 56 W22G30 29.69R WTRBRY/OXFORD MOSUNNY 46 36 66 W9G18 29.66R BRIDGEPORT CLOUDY 50 40 68 W16G26 29.68R MERIDEN CLOUDY 50 39 66 W9G20 29.65R NEW HAVEN CLOUDY 52 39 61 W9 29.67R CHESTER FAIR 48 43 81 W12G17 29.64R GROTON CLOUDY 49 44 83 W16G23 29.61R WILLIMANTIC CLOUDY 51 41 68 W12G20 29.61R IN RI CITY SKY/WX TMP DP RH WIND PRES REMARKS PROVIDENCE CLOUDY 54 46 74 W10 29.57F BLOCK ISLAND CLOUDY 48 43 81 W14G22 29.62F WESTERLY CLOUDY 50 45 83 W14G24 29.62R IN MA CITY SKY/WX TMP DP RH WIND PRES REMARKS BOSTON LGT RAIN 54 47 77 W13G26 29.53R WORCESTER CLOUDY 48 42 80 W23G33 29.56R WESTFIELD CLOUDY 50 34 54 W18G31 29.62R PROVINCETOWN CLOUDY 55 52 88 SW18 29.56S NANTUCKET LGT RAIN 52 50 93 S15 29.63S FOG $$ ANZ330-335-338-340-345-350-353-355-251600- COASTAL MARINE OBSERVATIONS STATION/POSITION TIME SKY/WX TEMP WIND PRES VSBY WAVE AIR SEA DIR/SP/G HT/PER (UTC) (F) (DEG/KT/KT) (MB) (MI) (FT/S) NY HARB ENTRANCE 1500 49 47 270/ 17/ 21 1007.7 6/ 8 4S FIRE IS 1500 47 N/A 7/ 8 20S FIRE ISLAND 1400 49 50 1005.1 7/ 8 23SW MTP 1500 N/A 8/ 8 HUDSON CANYON 1500 53 56 300/ 25/ 31 1006.1 EXECUTION ROCKS 1500 49 42 280/ 17/ 25 N/A WESTERN LI SOUND 1500 49 280/ 16/ 19 N/A 1/ 3 CENTRAL LI SOUND 1400 47 44 250/ 16/ 19 N/A 2/ 3 EASTERN LI SOUND NOT AVBL ROBBINS REEF 1500 49 1005.1 $$ >>>>>>>>>>>>>>>>>>>>>>>>>>>> KEY <<<<<<<<<<<<<<<<<<<<<<<<<<< > < > SKY/WX - SKY CONDITION/PRESENT WEATHER < > TMP - TEMPERATURE IN FAHRENHEIT < > DP - DEWPOINT IN FAHRENHEIT < > RH - RELATIVE HUMIDITY IN PERCENT < > WIND - DIRECTION AND SPEED IN MPH < > PRES - MEAN SEA LEVEL PRESSURE IN INCHES OF HG < > WCI - WIND CHILL INDEX < > VSB - VISIBILITY IN MILES < > HX - HEAT INDEX < > TC - TEMPERATURE IN CELSIUS < > VRB - VARIABLE WIND DIRECTION < > < >>>>>>>>>>>>>>>>>>>>>>>>>>>> KEY <<<<<<<<<<<<<<<<<<<<<<<<<<<

USA.gov is the U.S. government's official web portal to all federal, state and local government web resources and services.